Temp
62 68 69 69 71 69 62 59 62 65 64 72 70 72 75 75 75 74 72 72 78 80 78 77 78 80 83 84 74 71 72 74 77 78 80 78 78 77 76 74 74 73 72 69
62 70 71 69 74 72 72 71 67 65 67 73 74 74 74 76 76 73 72 76 75 73 78 80 79 79 76 73 73 73 72 72 78 77 76 75 73 73 74 74 72 71 70 68
55 64 66 62 68 71 73 74 71 62 70 76 74 73 74 74 76 75 75 75 75 74 76 79 81 81 79 74 76 74 76 76 77 77 75 74 72 73 73 72 71 70 68 66
55 58 51 67 72 79 76 77 76 73 74 77 79 83 77 79 79 77 78 77 76 75 75 76 78 78 75 75 76 74 74 76 76 76 74 73 74 72 73 71 71 68 66 65
55 51 61 70 74 75 71 74 78 76 77 78 79 78 75 83 83 80 78 79 79 78 78 76 77 76 72 74 74 75 74 75 75 74 73 73 72 73 71 71 70 68 68 66
53 51 52 65 74 83 76 64 75 77 80 79 76 68 75 83 84 82 83 80 78 78 78 76 75 77 76 73 73 72 73 73 74 74 76 75 74 72 70 70 69 69 68 67
53 52 59 66 71 76 58 58 71 73 77 79 74 74 80 84 83 84 84 82 81 80 78 77 79 78 74 72 72 73 74 74 74 75 76 77 73 71 69 68 67 67 67 67
51 51 49 69 68 58 62 70 70 72 69 71 73 73 75 83 81 82 83 79 82 80 78 78 79 77 72 72 72 73 74 74 73 74 77 74 71 69 69 68 67 65 65 64
50 52 61 66 64 68 72 70 70 70 74 70 70 69 72 79 79 79 79 81 83 80 76 77 76 76 72 72 73 73 74 73 73 73 72 71 70 68 67 67 66 66 65 64
52 58 63 67 68 71 72 72 74 75 74 74 69 71 73 72 71 76 73 78 82 78 76 74 75 76 74 73 74 74 72 72 71 71 70 70 70 69 67 66 66 67 67 67
50 56 62 66 67 69 72 74 74 74 74 74 70 72 73 74 73 74 72 72 74 77 75 74 74 74 76 75 75 73 73 72 70 71 71 70 68 69 73 69 67 69 69 69
49 56 57 59 66 70 70 70 73 73 73 74 70 69 71 71 70 71 72 73 72 76 75 74 75 75 75 76 76 74 72 72 71 71 70 70 65 61 54 53 53 51 57 66
58 62 64 66 69 71 68 71 73 72 73 71 73 69 69 69 67 66 68 73 76 75 75 75 74 74 75 75 75 74 74 73 73 72 71 69 67 66 67 62 54 51 50 53
57 57 55 61 61 68 70 72 72 72 74 72 72 70 71 72 69 68 72 76 77 76 75 75 75 74 76 76 76 74 73 66 71 71 70 70 70 69 67 66 65 65 55 50
55 57 56 58 63 66 69 68 67 67 69 70 71 70 69 67 67 70 73 78 78 76 75 75 74 74 76 77 77 73 73 73 72 72 71 71 73 71 70 69 68 67 62 54
54 55 56 56 58 61 65 67 63 64 67 69 68 68 69 68 66 66 72 74 75 74 75 75 75 76 77 78 77 74 73 70 70 73 76 75 73 71 72 71 69 68 67 67
49 49 50 51 54 56 61 63 63 65 66 69 68 68 69 68 67 67 70 74 76 76 77 76 76 77 77 77 76 76 74 72 72 72 72 73 72 71 74 73 74 70 72 69
55 54 54 54 54 56 59 63 66 67 65 67 66 67 67 67 67 68 71 72 77 76 77 77 78 78 78 78 77 75 73 72 72 73 73 74 72 72 70 73 77 72 73 70
58 56 57 57 57 57 58 61 64 64 63 66 68 67 67 70 70 72 73 72 75 73 75 77 72 76 77 76 74 74 73 73 73 73 74 72 73 73 73 72 73 73 74 72
57 57 57 57 59 58 58 62 64 61 63 65 68 66 67 70 72 73 72 70 76 78 78 78 76 78 77 76 73 74 75 74 74 73 73 73 76 73 73 69 75 76 74 73
55 56 56 56 56 57 58 60 61 63 64 65 66 66 65 68 69 77 71 69 75 75 80 71 79 78 78 75 76 77 75 75 73 72 72 73 73 73 74 78 78 76 75 74
55 54 55 56 55 55 57 58 60 61 61 63 66 67 65 64 68 73 77 71 80 67 77 79 78 74 78 72 77 75 75 75 73 71 70 72 72 74 75 74 75 75 78 76
53 54 55 56 54 55 56 57 58 60 61 64 64 65 64 65 66 67 71 77 81 73 81 81 71 68 67 77 76 74 75 76 73 72 73 72 72 73 74 74 75 76 74 74
53 54 55 56 57 55 53 56 57 60 63 64 65 66 65 64 64 68 74 73 71 68 80 77 69 65 70 73 73 73 73 73 71 72 73 65 71 71 72 72 73 73 71 69
54 54 55 55 54 54 56 57 58 62 63 64 64 64 66 67 65 66 68 76 64 75 79 63 64 63 77 74 74 74 73 72 70 74 71 71 72 71 70 68 68 68 68 67
54 53 55 56 56 57 58 60 62 63 63 63 64 65 65 65 65 65 65 67 76 74 78 72 72 75 77 75 74 74 75 72 73 73 71 71 70 69 68 66 65 63 62 63
55 52 56 56 56 58 60 62 63 62 61 64 66 67 67 67 67 65 66 71 74 74 71 74 74 71 75 76 72 71 71 70 65 68 68 67 67 64 63 62 61 59 59 58
MSLP
1005.45 1004.99 1004.13 1003.76 1003.88 1004.30 1004.60 1005.25 1005.62 1005.05 1004.55 1002.47 1002.29 1002.91 1003.31 1003.09 1003.09 1003.43 1003.85 1003.82 1004.35 1004.96 1005.30 1005.91 1006.49 1006.99 1007.49 1007.68 1007.83 1008.52 1008.95 1009.47 1009.80 1010.09 1010.52 1011.09 1011.42 1011.68 1012.13 1012.62 1012.94 1013.56 1013.72 1014.47
1005.93 1004.85 1004.27 1003.54 1002.86 1002.61 1003.44 1003.75 1003.79 1003.77 1003.58 1001.78 1001.56 1002.16 1002.84 1003.08 1002.95 1003.61 1003.91 1004.17 1004.40 1004.94 1005.32 1005.74 1006.28 1006.72 1007.33 1007.95 1008.29 1008.80 1009.35 1009.41 1009.62 1010.22 1010.69 1011.33 1011.80 1012.03 1012.30 1012.77 1013.38 1013.75 1014.27 1014.77
1006.97 1005.73 1004.84 1003.86 1002.61 1002.17 1001.93 1001.91 1002.39 1002.98 1002.00 1001.15 1001.09 1001.69 1002.19 1002.86 1002.75 1003.24 1003.82 1004.25 1004.61 1004.94 1005.20 1005.47 1006.02 1006.42 1007.27 1007.78 1008.19 1008.70 1009.45 1009.41 1009.70 1010.12 1010.90 1011.58 1011.85 1012.31 1012.64 1013.22 1013.76 1014.38 1014.79 1015.12
1007.55 1006.64 1005.73 1003.50 1002.20 1001.82 1001.29 1001.24 1001.08 1001.07 1000.85 1000.52 1000.11 999.84 1001.15 1002.23 1001.96 1002.62 1003.26 1004.03 1004.52 1005.23 1005.55 1005.80 1005.93 1006.58 1007.32 1007.92 1008.63 1009.48 1010.02 1009.83 1009.63 1010.26 1011.08 1011.65 1011.84 1012.70 1013.10 1013.65 1014.06 1014.59 1015.09 1015.55
1007.90 1007.42 1006.02 1003.55 1002.16 1001.73 1001.42 1001.44 1001.01 1000.63 1000.42 1000.18 1000.19 1000.60 1001.20 1001.59 1001.12 1001.73 1002.47 1003.32 1003.98 1004.52 1005.28 1005.84 1006.34 1006.76 1007.41 1008.19 1008.64 1009.27 1009.79 1009.87 1010.13 1010.45 1011.20 1011.67 1012.07 1012.86 1013.53 1013.92 1014.43 1014.77 1015.24 1015.61
1008.46 1008.04 1006.62 1005.06 1003.89 1002.04 1001.50 1002.65 1003.81 1004.02 1002.18 1000.36 1000.18 1001.33 1000.58 1000.35 1000.80 1001.45 1002.10 1002.67 1003.65 1004.53 1005.04 1005.97 1006.64 1007.17 1007.84 1008.55 1009.00 1009.31 1009.78 1009.75 1009.91 1010.65 1010.94 1011.68 1012.26 1013.07 1013.58 1014.01 1014.50 1014.95 1015.41 1015.39
1008.99 1008.24 1006.84 1007.01 1004.85 1002.40 1004.26 1007.03 1005.65 1004.67 1002.91 1001.59 1000.25 1000.68 999.63 999.87 1000.82 1001.14 1001.76 1002.48 1003.04 1004.19 1005.02 1005.81 1006.51 1007.15 1007.87 1008.41 1009.00 1009.29 1009.57 1009.84 1010.13 1010.52 1011.01 1011.72 1012.45 1013.13 1013.80 1014.31 1014.78 1015.21 1015.23 1015.36
1009.88 1008.96 1008.77 1008.05 1006.40 1007.56 1009.57 1008.45 1006.96 1005.25 1004.25 1003.94 1001.78 1000.01 999.59 999.68 1000.61 1001.20 1001.68 1002.41 1003.19 1003.91 1004.76 1005.84 1006.47 1007.20 1008.01 1008.51 1008.93 1009.53 1009.80 1010.23 1010.57 1010.72 1011.38 1012.14 1012.79 1013.56 1013.95 1014.51 1015.07 1015.21 1015.31 1015.50
1012.03 1011.03 1010.34 1010.10 1009.96 1009.96 1009.56 1008.50 1007.03 1005.63 1004.64 1003.98 1003.27 1002.07 1000.08 999.81 1000.52 1001.70 1002.83 1003.03 1003.20 1004.03 1004.62 1005.62 1006.26 1007.14 1008.38 1008.78 1008.97 1009.54 1010.08 1010.50 1010.94 1011.36 1011.95 1012.37 1013.06 1013.68 1014.21 1014.71 1015.02 1015.19 1015.33 1015.54
1012.59 1010.53 1010.57 1010.57 1010.02 1009.58 1008.91 1008.21 1007.12 1005.60 1005.15 1004.55 1004.20 1003.05 1001.68 1000.66 1000.95 1002.06 1002.56 1005.66 1004.46 1004.13 1004.76 1005.76 1006.57 1007.18 1007.67 1008.69 1008.77 1009.50 1010.24 1010.97 1011.34 1011.83 1012.41 1012.70 1013.10 1013.57 1014.04 1014.55 1014.95 1015.15 1015.29 1015.48
1012.96 1011.86 1010.70 1010.25 1010.39 1009.87 1008.45 1007.82 1007.03 1006.31 1005.35 1004.47 1004.36 1003.73 1002.11 1001.77 1001.20 1001.47 1002.44 1004.35 1005.47 1004.23 1004.57 1005.58 1006.26 1007.22 1007.62 1008.25 1008.63 1009.56 1010.37 1011.02 1011.66 1012.11 1012.54 1012.88 1013.39 1013.70 1013.83 1013.91 1014.26 1014.48 1014.54 1014.79
1012.99 1012.46 1011.71 1010.59 1010.00 1009.72 1008.77 1007.48 1007.06 1006.43 1004.77 1004.09 1004.36 1004.23 1002.98 1002.48 1001.56 1002.11 1001.60 1003.10 1005.00 1004.39 1004.57 1005.21 1006.01 1007.00 1007.47 1007.73 1008.28 1009.15 1010.09 1011.06 1011.83 1012.16 1012.41 1012.81 1013.44 1014.00 1014.01 1013.97 1014.10 1014.05 1013.98 1014.05
1012.68 1011.76 1011.07 1010.45 1009.80 1009.28 1008.53 1007.68 1007.05 1006.40 1005.46 1004.46 1003.69 1004.54 1003.62 1003.71 1003.53 1003.31 1003.14 1003.38 1003.71 1004.08 1004.65 1004.85 1005.88 1006.75 1007.34 1007.61 1008.15 1008.94 1009.58 1010.78 1011.69 1011.85 1012.03 1012.56 1013.05 1013.40 1013.78 1013.76 1013.74 1013.77 1013.74 1013.86
1013.47 1012.92 1011.47 1010.48 1010.37 1009.16 1008.11 1007.36 1006.88 1006.15 1005.38 1005.17 1004.55 1003.84 1003.20 1003.86 1003.69 1002.85 1002.65 1003.16 1003.03 1004.52 1004.81 1004.94 1005.61 1006.40 1006.90 1007.42 1007.89 1008.63 1009.50 1010.43 1011.25 1011.35 1011.62 1012.19 1012.55 1012.91 1013.18 1013.58 1014.00 1014.11 1014.11 1014.16
1013.53 1013.06 1012.35 1011.15 1010.35 1009.26 1008.20 1007.22 1006.37 1005.87 1005.13 1004.95 1004.59 1004.14 1004.02 1004.49 1004.76 1003.41 1003.04 1002.48 1003.04 1004.29 1004.55 1004.88 1005.27 1006.10 1006.60 1007.14 1007.57 1008.35 1009.45 1010.19 1010.78 1010.99 1011.14 1011.43 1011.82 1012.20 1012.40 1012.93 1013.19 1013.51 1014.04 1014.33
1013.37 1012.77 1011.80 1010.92 1009.91 1009.23 1008.37 1007.45 1007.04 1006.22 1005.27 1004.75 1004.32 1003.39 1004.43 1004.61 1004.29 1004.17 1003.54 1003.58 1003.93 1003.56 1003.79 1004.17 1004.66 1005.36 1006.06 1006.70 1007.38 1008.34 1009.24 1009.85 1010.29 1010.51 1010.59 1010.72 1011.11 1011.51 1011.81 1012.28 1012.64 1012.90 1013.23 1013.42
1012.58 1011.81 1011.43 1010.51 1010.07 1009.04 1008.28 1007.53 1006.75 1006.13 1005.04 1004.54 1003.48 1001.98 1002.92 1003.74 1002.67 1003.14 1004.15 1003.93 1003.73 1003.33 1003.54 1003.46 1003.87 1004.72 1005.51 1006.29 1007.08 1007.99 1008.78 1009.39 1009.69 1009.92 1010.11 1010.04 1010.40 1010.91 1011.03 1011.47 1011.87 1012.16 1012.20 1012.25
1012.09 1011.52 1011.04 1010.06 1009.26 1008.58 1007.70 1006.77 1006.28 1005.67 1005.06 1004.73 1003.95 1002.46 1000.51 999.84 1000.47 1001.82 1003.04 1003.53 1003.70 1003.24 1003.21 1003.38 1003.45 1004.28 1005.07 1006.03 1006.79 1007.58 1008.29 1008.91 1009.17 1009.31 1009.42 1009.63 1009.90 1009.95 1010.45 1010.88 1011.15 1011.49 1011.50 1011.62
1011.09 1010.44 1009.70 1008.95 1008.33 1007.78 1007.06 1005.99 1005.04 1004.97 1005.17 1005.39 1004.31 1003.32 1002.06 1000.17 999.70 1000.89 1001.98 1003.08 1002.97 1002.53 1002.78 1003.18 1003.54 1004.29 1004.99 1005.79 1006.40 1007.09 1007.83 1008.43 1008.74 1008.93 1009.06 1009.24 1009.56 1009.78 1009.99 1010.10 1010.48 1010.72 1010.85 1011.03
1009.87 1009.08 1008.36 1007.68 1007.01 1006.57 1005.86 1005.45 1004.05 1003.87 1004.23 1004.38 1003.44 1002.98 1002.23 1000.41 1000.38 1000.58 1001.07 1001.72 1001.36 1001.05 1002.11 1003.00 1003.46 1004.29 1004.75 1005.38 1005.87 1006.54 1007.34 1008.01 1008.40 1008.50 1008.65 1008.97 1009.06 1009.20 1009.53 1009.71 1009.72 1009.95 1010.32 1010.51
1008.51 1007.56 1006.89 1006.29 1005.69 1005.28 1004.74 1004.09 1003.16 1001.81 1002.71 1003.55 1002.98 1002.07 1001.55 1000.82 1000.34 999.81 1000.39 1001.51 1001.87 1001.44 1001.70 1002.40 1003.13 1003.88 1004.43 1005.06 1005.63 1006.13 1006.82 1007.48 1007.89 1008.15 1008.38 1008.65 1009.01 1009.34 1009.59 1009.54 1009.61 1009.55 1009.72 1009.90
1006.90 1006.04 1005.38 1005.04 1004.55 1003.77 1003.02 1002.75 1002.22 1001.66 1001.26 1001.44 1001.60 1000.81 1000.36 1000.49 999.90 999.34 999.04 999.99 1000.50 1000.62 1001.56 1002.25 1002.93 1003.41 1003.88 1004.72 1005.33 1005.89 1006.43 1006.92 1007.21 1007.60 1008.05 1008.42 1008.75 1008.97 1009.07 1009.09 1009.05 1009.18 1009.37 1009.60
1005.33 1004.53 1004.09 1003.50 1002.99 1002.45 1002.13 1001.62 1001.11 1000.66 1000.16 1000.68 1000.23 999.84 999.53 998.93 999.30 1000.00 998.28 997.74 999.25 999.60 1000.45 1001.10 1002.10 1002.98 1003.83 1004.51 1005.12 1005.62 1006.16 1006.55 1006.63 1007.18 1007.62 1008.07 1008.27 1008.67 1008.86 1008.85 1008.85 1008.93 1009.25 1009.41
1003.91 1003.13 1002.38 1001.88 1001.69 1001.64 1001.41 1000.72 1000.39 999.92 999.88 999.08 997.89 998.35 999.42 997.49 996.58 999.12 997.02 996.70 997.91 999.10 999.54 1000.51 1001.54 1002.58 1003.44 1004.40 1005.04 1005.48 1005.85 1005.97 1006.14 1006.58 1006.98 1007.43 1007.94 1008.23 1008.74 1009.00 1009.31 1009.50 1009.87 1010.13
1002.40 1001.89 1001.02 1000.36 1000.25 1000.12 1000.06 1000.08 999.73 999.24 998.51 998.31 998.02 996.98 997.61 998.49 999.49 998.21 997.05 995.97 996.64 998.68 999.72 1000.46 1001.20 1002.48 1002.89 1003.82 1004.58 1004.99 1005.23 1005.61 1005.86 1006.06 1006.77 1007.56 1008.16 1008.67 1009.06 1009.59 1009.95 1010.19 1010.52 1011.00
1000.69 1000.13 999.49 999.27 999.17 998.88 998.85 998.88 998.17 997.68 997.10 996.82 996.71 996.80 997.26 998.28 997.99 998.01 997.81 997.52 997.50 998.23 999.63 1000.67 1001.23 1002.16 1002.88 1003.57 1004.08 1004.60 1005.05 1005.67 1006.26 1006.49 1007.14 1007.70 1008.15 1008.75 1009.29 1009.89 1010.53 1011.05 1011.29 1011.67
999.55 998.81 998.40 997.85 997.14 997.52 997.96 997.54 996.57 996.28 996.20 996.34 996.27 995.85 996.03 996.88 997.81 998.48 998.12 998.46 998.21 998.43 999.60 1000.32 1001.14 1002.46 1003.08 1003.61 1004.16 1004.94 1005.40 1005.69 1006.20 1006.94 1007.58 1008.28 1009.01 1009.59 1010.04 1010.63 1010.94 1011.64 1012.27 1012.43
Wind_Speed
4 7 3 4 4 7 5 5 8 10 10 12 9 10 11 6 7 7 6 9 14 14 12 12 14 14 14 13 6 3 6 4 5 7 8 5 4 6 6 6 8 6 8 7
7 7 9 5 9 6 7 10 4 2 11 11 7 6 6 9 8 7 7 9 8 7 13 16 15 13 7 4 3 4 1 5 4 6 7 7 6 9 10 8 6 8 7 7
7 5 7 6 4 3 5 6 10 6 13 8 7 7 10 10 9 10 8 7 7 9 10 13 15 12 9 7 4 4 6 7 6 10 10 9 8 8 9 8 7 7 6 7
5 6 4 10 4 10 9 6 6 3 5 11 13 14 6 11 13 12 11 9 8 7 6 6 6 8 8 7 7 7 5 6 10 9 11 9 9 9 8 6 8 6 6 6
4 4 7 9 4 2 4 6 5 4 3 7 3 6 2 10 14 13 11 11 9 8 10 6 8 8 9 7 7 7 7 7 7 8 9 9 10 10 6 8 6 5 5 6
3 3 6 6 21 13 4 5 26 23 19 6 4 5 10 14 14 11 13 12 10 8 7 9 9 10 11 8 7 7 7 6 7 7 10 10 10 9 4 5 5 5 5 5
4 4 2 18 21 9 9 11 27 25 18 10 8 7 5 7 8 12 15 12 12 12 10 11 12 11 10 8 8 6 7 7 8 10 11 10 8 6 6 6 6 5 5 4
4 3 1 22 10 12 6 15 21 18 17 9 10 2 6 14 10 14 16 14 15 14 14 12 12 12 9 8 7 7 8 9 9 9 9 8 10 5 6 6 6 5 5 2
2 2 4 6 4 5 10 14 17 12 15 8 11 12 4 10 11 9 7 11 15 16 15 11 11 13 11 9 9 9 9 10 9 8 7 7 8 7 6 5 5 4 4 3
6 5 9 13 8 15 16 14 20 13 14 11 5 10 3 8 10 13 16 9 10 15 16 13 11 11 14 10 10 11 10 9 7 8 6 6 5 5 5 5 4 4 4 4
7 8 14 2 9 14 19 17 19 18 16 15 8 7 5 7 9 14 14 2 6 14 15 14 13 12 14 12 12 11 10 8 6 6 7 6 4 3 3 2 3 6 6 5
8 8 11 11 15 15 14 18 18 22 23 22 2 6 2 7 7 11 14 14 8 13 16 16 15 14 13 13 13 13 10 7 7 7 5 4 5 3 5 5 2 5 9 8
14 10 17 16 17 13 8 17 18 18 19 19 18 3 4 6 4 2 3 15 11 14 17 17 16 15 13 12 13 12 11 9 7 7 6 5 4 5 5 1 5 5 6 3
8 14 10 7 11 20 11 11 16 16 15 17 13 4 5 7 7 8 16 12 14 14 15 16 17 16 14 13 14 11 9 11 7 6 5 5 6 5 4 5 5 3 1 1
14 13 13 18 15 15 13 10 15 10 13 17 13 7 1 1 7 10 6 12 16 17 16 16 16 15 14 14 14 11 8 7 6 5 5 6 6 6 5 5 5 4 2 1
13 17 19 18 14 13 13 13 13 12 10 15 13 5 2 6 8 5 6 10 17 17 18 17 16 16 14 14 13 9 8 9 7 6 6 7 5 6 5 5 5 5 5 5
17 16 15 17 16 13 13 14 11 14 9 12 17 16 12 7 9 10 10 13 13 17 16 17 17 15 15 14 13 9 6 5 7 5 5 5 6 6 7 6 7 6 7 5
15 17 17 18 18 16 16 15 8 7 9 6 12 15 21 15 5 9 11 12 12 12 15 15 15 15 15 13 12 8 6 5 5 5 4 4 4 5 5 6 7 7 6 5
16 17 19 20 18 18 18 17 12 6 5 9 10 15 16 20 9 13 16 13 15 15 13 13 17 17 14 13 11 7 7 6 5 4 4 4 4 5 5 6 6 7 6 4
18 17 18 21 19 19 18 15 16 7 8 7 8 14 17 21 12 15 15 18 20 14 16 15 17 14 13 13 13 7 7 6 6 5 5 4 2 1 1 4 6 6 5 5
19 19 19 19 17 17 18 14 18 12 13 6 9 17 15 14 10 15 15 11 14 12 17 19 15 11 10 10 10 8 6 5 5 6 5 5 4 3 4 3 4 3 4 3
17 18 18 18 15 17 18 15 17 11 11 9 10 16 10 6 5 14 21 21 13 20 13 12 10 13 12 14 8 6 6 5 5 5 5 5 5 5 3 1 1 3 4 4
15 17 18 18 16 16 15 16 14 14 14 12 12 15 8 3 5 8 15 18 14 19 15 13 14 17 16 8 7 6 6 6 6 6 6 6 5 4 4 2 3 3 4 3
17 18 19 17 14 12 14 14 13 12 12 7 8 15 10 0 11 16 14 20 23 18 16 14 16 19 16 6 6 6 6 5 6 7 7 7 5 4 4 5 6 6 6 7
20 19 18 14 11 9 12 12 9 11 12 8 7 3 9 11 14 11 7 12 23 18 12 17 21 18 9 7 6 6 6 5 6 8 6 8 8 9 8 7 7 7 9 9
19 15 12 12 10 8 5 8 10 7 6 5 5 7 7 8 5 8 7 6 15 17 12 11 10 10 8 6 6 6 6 8 6 8 9 9 9 9 9 9 8 7 6 6
16 12 10 7 6 6 7 11 7 5 5 7 9 8 11 6 1 10 15 11 11 11 10 10 10 8 9 9 9 9 8 8 11 10 9 9 8 8 9 8 9 7 6 6
Wind_Direction
283 238 265 280 179 211 205 158 163 221 234 258 196 194 211 216 145 141 151 151 167 154 150 150 158 172 178 185 186 109 145 164 213 195 194 171 146 164 124 119 141 116 104 92
315 324 356 316 329 216 193 199 287 189 248 260 237 118 169 218 149 159 163 172 152 132 147 156 161 174 154 188 197 106 48 224 221 156 133 115 118 121 130 121 101 106 98 102
280 343 341 1 289 230 257 176 173 171 226 266 242 187 184 215 164 161 163 171 169 154 153 149 169 163 169 182 171 145 202 162 144 135 122 123 122 121 122 115 120 112 111 108
247 20 344 237 282 254 215 287 261 271 201 225 224 215 158 209 165 165 162 169 176 152 163 162 136 134 134 128 150 148 165 127 123 125 123 136 137 129 116 131 127 126 120 125
162 182 269 303 283 281 187 264 237 185 289 201 127 84 312 207 177 171 160 170 180 169 159 162 150 138 120 128 122 140 151 150 133 136 128 130 127 126 134 126 123 126 140 153
128 163 224 332 331 294 145 224 3 330 292 210 126 152 234 196 178 165 166 163 161 158 132 138 149 135 138 142 139 141 159 155 137 141 132 130 132 131 121 127 128 131 149 145
183 208 281 335 330 325 62 320 324 337 302 284 148 203 272 144 169 166 173 167 144 141 139 140 138 136 131 132 139 140 121 123 124 133 125 131 122 120 125 122 121 143 135 142
340 185 289 351 23 52 306 319 321 342 1 344 322 289 183 166 159 164 170 152 148 142 138 141 136 130 129 133 133 130 121 124 124 116 131 133 124 128 132 128 138 147 141 145
111 244 165 25 76 1 337 323 327 324 344 329 331 314 345 144 119 89 121 148 149 146 137 142 137 138 142 152 137 130 126 122 123 120 129 130 133 142 136 148 157 162 160 169
359 307 346 340 357 343 339 327 329 340 323 314 315 301 43 110 114 104 88 284 166 141 141 141 145 147 141 151 139 133 129 136 134 133 130 137 137 150 149 159 167 170 185 195
259 295 317 173 344 337 325 336 334 319 321 304 267 275 190 173 181 141 143 190 230 151 145 147 142 145 150 150 141 139 141 137 138 145 162 156 114 167 178 173 191 186 202 189
286 282 273 294 319 321 320 323 337 331 331 337 183 250 323 203 207 163 142 153 185 165 151 148 145 151 155 153 149 149 144 141 165 173 172 156 150 146 75 69 10 256 242 189
286 271 288 292 300 305 296 309 317 316 314 324 324 143 211 238 263 324 283 160 169 173 160 149 149 155 160 154 150 154 152 154 180 184 181 162 162 169 163 359 23 7 16 158
13 357 326 343 321 313 278 287 301 303 314 318 327 260 211 203 238 189 244 203 160 166 159 154 154 159 162 159 156 155 159 159 181 195 175 168 176 174 160 170 163 221 209 12
320 310 279 293 304 308 327 291 289 303 322 323 339 339 194 255 293 312 222 177 165 168 162 159 156 161 163 164 164 159 164 172 185 195 198 194 182 176 187 179 176 182 161 278
301 293 296 289 291 307 317 313 294 298 316 315 314 352 333 278 207 291 256 183 177 175 169 164 162 163 163 167 170 162 169 167 183 199 213 215 181 169 186 178 193 197 201 203
311 298 292 290 290 291 287 285 293 277 289 319 321 310 303 255 197 186 225 210 197 173 173 167 163 163 164 171 171 177 171 170 200 171 183 180 165 185 194 184 198 206 218 197
293 278 276 274 279 282 279 277 273 289 282 318 307 294 299 294 192 181 197 203 194 175 173 171 158 163 170 175 174 174 160 174 190 189 175 141 177 172 181 198 199 200 221 209
295 288 287 282 269 268 271 273 273 271 235 287 284 263 273 270 257 203 181 193 188 174 180 168 157 163 171 174 165 166 164 174 193 189 176 160 142 164 182 197 188 207 218 194
282 275 279 279 270 265 271 268 269 241 250 245 252 257 264 250 218 179 174 195 195 178 161 168 163 171 173 172 160 163 163 172 190 202 174 170 156 64 182 184 178 181 188 195
278 284 279 276 274 272 266 269 271 261 256 210 250 261 268 223 221 180 167 187 210 174 167 159 167 173 177 166 173 177 162 172 180 187 185 177 163 171 191 183 159 191 204 201
282 283 278 277 270 268 267 269 267 264 280 278 256 242 248 145 182 201 182 188 186 160 161 165 165 171 171 160 171 164 164 179 188 168 167 169 159 168 140 132 117 169 166 191
284 285 283 278 265 266 271 269 276 273 268 265 215 218 235 130 78 258 201 185 174 164 165 167 163 164 151 160 166 166 171 191 184 167 163 170 163 163 152 148 156 137 151 161
281 284 285 278 261 254 259 263 262 262 253 234 249 205 208 240 332 266 225 169 160 164 162 157 161 157 153 153 157 166 169 205 169 160 155 166 150 124 91 85 75 76 79 66
288 290 291 276 266 269 261 255 253 249 213 178 204 202 162 195 220 259 330 192 148 158 157 153 153 151 153 156 163 183 177 156 162 161 130 112 109 104 87 72 67 76 79 71
290 286 283 276 259 248 271 254 231 196 178 190 220 204 166 178 197 225 278 289 174 153 152 152 147 158 156 151 139 123 114 115 110 102 117 114 107 110 106 98 83 69 73 69
288 275 281 269 255 245 240 249 213 183 173 187 206 212 183 126 60 282 230 209 182 151 138 148 137 117 127 128 108 114 117 106 104 102 89 88 93 98 98 94 96 88 75 76